[TLELIST] Archives

 

Current TLEs

September 9th 2006 PDT

HST 1 20580U 90037B 06251.32829155 .00000474 00000-0 24118-4 0 6939 2 20580 028.4688 227.8877 0003437 347.5881 012.4623 15.00088579697594 ISS (ZARYA) 1 25544U 98067A 06252.44258404 .00014635 00000-0 96907-4 0 6335 2 25544 051.6331 113.4131 0011142 320.8285 104.5775 15.75745231446454 CXO 1 25867U 99040B 06252.37500000 .00000000 00000-0 00000+0 0 9708 2 25867 060.0869 095.2763 5915255 289.0953 359.5448 00.37810092 1211 ____________________________________________________________________ These 2-Line ...Continue Reading

Current TLEs

September 8th 2006 PDT

HST 1 20580U 90037B 06249.39886175 +.00000454 +00000-0 +22550-4 0 07126 2 20580 028.4692 240.4648 0003474 325.8521 034.1846 15.00087268697308 ISS (ZARYA) 1 25544U 98067A 06251.24453902 .00014984 00000-0 99260-4 0 6288 2 25544 051.6328 119.5827 0011163 316.0972 148.6681 15.75709975446261 CXO 1 25867U 99040B 06249.75000000 .00000000 00000-0 00000+0 0 9699 2 25867 060.0688 095.4029 5906408 289.0387 002.2811 00.37800074 1213 ____________________________________________________________________ These 2-Line ...Continue Reading

Current TLEs

September 7th 2006 PDT

HST 1 20580U 90037B 06249.39886175 +.00000454 +00000-0 +22550-4 0 07126 2 20580 028.4692 240.4648 0003474 325.8521 034.1846 15.00087268697308 ISS (ZARYA) 1 25544U 98067A 06250.22889086 .00014730 00000-0 97799-4 0 6230 2 25544 051.6327 124.8115 0011019 311.5490 148.0609 15.75677564446109 CXO 1 25867U 99040B 06249.75000000 .00000000 00000-0 00000+0 0 9699 2 25867 060.0688 095.4029 5906408 289.0387 002.2811 00.37800074 1213 ____________________________________________________________________ These 2-Line ...Continue Reading

Current TLEs

September 6th 2006 PDT

HST 1 20580U 90037B 06247.40289913 +.00000430 +00000-0 +20702-4 0 07001 2 20580 028.4698 253.4785 0003535 302.9682 057.0570 15.00085923697003 ISS (ZARYA) 1 25544U 98067A 06249.21316091 .00014147 00000-0 94238-4 0 6167 2 25544 051.6327 130.0403 0011014 307.9311 146.1719 15.75644384445940 CXO 1 25867U 99040B 06249.75000000 .00000000 00000-0 00000+0 0 9699 2 25867 060.0688 095.4029 5906408 289.0387 002.2811 00.37800074 1213 ____________________________________________________________________ These 2-Line ...Continue Reading

Current TLEs

September 5th 2006 PDT

HST 1 20580U 90037B 06246.40491706 +.00000406 +00000-0 +18757-4 0 07140 2 20580 028.4698 259.9840 0003610 291.3027 068.7176 15.00085220696857 ISS (ZARYA) 1 25544U 98067A 06248.20679600 .00014191 00000-0 94640-4 0 6125 2 25544 051.6329 135.2217 0010957 304.0858 197.7883 15.75614479445789 CXO 1 25867U 99040B 06247.08333333 .00000000 00000-0 00000+0 0 9680 2 25867 060.0735 095.4562 5893885 289.0790 359.2677 00.37789271 1210 ____________________________________________________________________ These 2-Line ...Continue Reading

Current TLEs

September 4th 2006 PDT

HST 1 20580U 90037B 06247.20330288 .00000409 00000-0 19030-4 0 6907 2 20580 028.4698 254.7807 0003593 300.0604 059.9627 15.00085635696978 ISS (ZARYA) 1 25544U 98067A 06247.19125644 .00014453 00000-0 96427-4 0 6087 2 25544 051.6334 140.4498 0010960 299.5789 198.1068 15.75585754445625 CXO 1 25867U 99040B 06247.08333333 .00000000 00000-0 00000+0 0 9680 2 25867 060.0735 095.4562 5893885 289.0790 359.2677 00.37789271 1210 ____________________________________________________________________ These 2-Line ...Continue Reading

Current TLEs

September 3rd 2006 PDT

HST 1 20580U 90037B 06244.40895254 +.00000375 +00000-0 +16330-4 0 07009 2 20580 028.4699 272.9949 0003763 269.0362 090.9794 15.00084024696557 ISS (ZARYA) 1 25544U 98067A 06246.36967593 .00013718 00000-0 91856-4 0 6053 2 25544 051.6334 144.6789 0010910 296.2718 218.2045 15.75558641445494 CXO 1 25867U 99040B 06247.08333333 .00000000 00000-0 00000+0 0 9680 2 25867 060.0735 095.4562 5893885 289.0790 359.2677 00.37789271 1210 ____________________________________________________________________ These 2-Line ...Continue Reading

Current TLEs

September 2nd 2006 PDT

HST 1 20580U 90037B 06244.20935603 .00000385 00000-0 17165-4 0 6883 2 20580 028.4701 274.2959 0003712 266.2551 093.7620 15.00084137696521 ISS (ZARYA) 1 25544U 98067A 06245.16570701 .00012428 00000-0 83766-4 0 5991 2 25544 051.6321 150.8771 0010963 291.6264 229.3743 15.75519305445305 CXO 1 25867U 99040B 06244.45833333 .00000000 00000-0 00000+0 0 9672 2 25867 060.0699 095.4672 5887362 289.1799 001.8557 00.37791551 1215 ____________________________________________________________________ These 2-Line ...Continue Reading

Current TLEs

September 1st 2006 PDT

HST 1 20580U 90037B 06243.47750239 +.00000338 +00000-0 +13462-4 0 07112 2 20580 028.4701 279.0661 0003719 257.9337 102.0834 15.00083573696412 ISS (ZARYA) 1 25544U 98067A 06244.14845706 .00012401 00000-0 83691-4 0 5930 2 25544 051.6315 156.1131 0010991 287.6104 219.8286 15.75492346445149 CXO 1 25867U 99040B 06244.45833333 .00000000 00000-0 00000+0 0 9672 2 25867 060.0699 095.4672 5887362 289.1799 001.8557 00.37791551 1215 ____________________________________________________________________ These 2-Line ...Continue Reading

Current TLEs

August 31st 2006 PDT

HST 1 20580U 90037B 06242.54605249 .00000389 00000-0 17467-4 0 6876 2 20580 028.4700 285.1386 0003658 249.2177 110.8024 15.00083480696270 ISS (ZARYA) 1 25544U 98067A 06243.38865741 .00013130 00000-0 88411-4 0 5885 2 25544 051.6320 160.0240 0011093 284.8289 230.3234 15.75475682445029 CXO 1 25867U 99040B 06244.45833333 .00000000 00000-0 00000+0 0 9672 2 25867 060.0699 095.4672 5887362 289.1799 001.8557 00.37791551 1215 ____________________________________________________________________ These 2-Line ...Continue Reading
  • This mailing list is a public mailing list - anyone may join or leave, at any time.
  • This mailing list is announce-only.

International Space Station (ISS) / Hubble Space Telescope (HST) / Chandra X-Ray Observatory Orbital Data via EMAIL

Privacy Policy:

Private list